Fort Rucker / Ozark, AL

7:16 PM CST on November 24, 2017 (GMT -0600)
Fort Rucker / Ozark

Weather History for KLOR - February, 2013

Change the Weather History Date:

Saturday, February 16, 2013

  Actual Average (KOZR) Record (KOZR)
Temperature  
Mean Temperature 43 °F -  
Max Temperature 51 °F 62 °F 80 °F (2000)
Min Temperature 34 °F 41 °F 26 °F (2007)
Degree Days  
Heating Degree Days 22    
Moisture  
Dew Point 25 °F    
Average Humidity 48    
Maximum Humidity 76    
Minimum Humidity 20    
Precipitation  
Precipitation 0.00 in - - ()
Sea Level Pressure  
Sea Level Pressure 30.10 in    
Wind  
Wind Speed 8 mph (NW)    
Max Wind Speed 21 mph    
Max Gust Speed 31 mph    
Visibility 10 miles    
Events      
Averages and records for this station are not official NWS values.
T = Trace of Precipitation, MM = Missing Value Source: NWS Daily Summary

Daily Weather History Graph

Daily Weather History Graph

Search for Another Location

Airport or City:

Trip Planner

Search our weather history database for the weather conditions in past years. The results will help you decide how hot, cold, wet, or windy it might be!

Date:

Astronomy

Feb. 16, 2013 Rise Set
Actual Time 6:23 AM CST 5:31 PM CST
Civil Twilight 5:58 AM CST 5:56 PM CST
Nautical Twilight 5:30 AM CST 6:24 PM CST
Astronomical Twilight 5:01 AM CST 6:52 PM CST
Moon 10:03 AM CST (2/16) 11:58 PM CST (2/16)
Length of Visible Light 11h 57m
Length of Day
11h 08m
Waxing Crescent, 39% of the Moon is Illuminated
Feb 16
Waxing Crescent
Feb 17
First Quarter
Feb 25
Full
Mar 4
Last Quarter
Mar 11
New

Hourly Weather History & Observations

Time (CST) Temp. Windchill Dew Point Humidity Pressure Visibility Wind Dir Wind Speed Gust Speed Precip Events Conditions
12:53 AM 48.0 °F - 37.9 °F 68% 30.02 in 10.0 mi North 4.6 mph - N/A   Clear
1:53 AM 46.9 °F - 37.9 °F 71% 30.01 in 10.0 mi NNW 5.8 mph - N/A   Clear
2:53 AM 45.0 °F 42.6 °F 37.0 °F 74% 30.01 in 10.0 mi NNW 4.6 mph - N/A   Mostly Cloudy
3:53 AM 45.0 °F 42.6 °F 37.9 °F 76% 30.01 in 10.0 mi NNW 4.6 mph - N/A   Overcast
4:53 AM 46.0 °F 43.9 °F 37.9 °F 73% 30.03 in 10.0 mi NW 4.6 mph - N/A   Overcast
5:53 AM 46.0 °F 41.9 °F 37.9 °F 73% 30.04 in 10.0 mi NW 8.1 mph - N/A   Overcast
6:53 AM 46.9 °F - 36.0 °F 66% 30.06 in 10.0 mi WNW 4.6 mph - N/A   Overcast
7:53 AM 46.9 °F - 35.1 °F 63% 30.06 in 10.0 mi West 6.9 mph - N/A   Overcast
8:53 AM 48.9 °F - 35.1 °F 59% 30.07 in 10.0 mi WNW 11.5 mph 19.6 mph N/A   Clear
9:53 AM 51.1 °F - 27.0 °F 39% 30.09 in 10.0 mi NW 20.7 mph 28.8 mph N/A   Partly Cloudy
10:53 AM 50.0 °F - 26.1 °F 39% 30.09 in 10.0 mi NNW 15.0 mph 23.0 mph N/A   Mostly Cloudy
11:53 AM 50.0 °F - 23.0 °F 35% 30.08 in 10.0 mi NW 13.8 mph 25.3 mph N/A   Scattered Clouds
12:53 PM 50.0 °F - 21.0 °F 32% 30.06 in 10.0 mi NW 17.3 mph 24.2 mph N/A   Scattered Clouds
1:53 PM 50.0 °F - 19.0 °F 29% 30.05 in 10.0 mi NNW 17.3 mph 31.1 mph N/A   Overcast
2:53 PM 50.0 °F - 12.9 °F 23% 30.06 in 10.0 mi NW 19.6 mph 26.5 mph N/A   Mostly Cloudy
3:53 PM 48.9 °F - 9.0 °F 20% 30.08 in 10.0 mi NW 15.0 mph 27.6 mph N/A   Mostly Cloudy
4:53 PM 46.9 °F - 10.9 °F 23% 30.10 in 10.0 mi NNW 16.1 mph 25.3 mph N/A   Partly Cloudy
5:53 PM 43.0 °F 38.2 °F 12.9 °F 30% 30.12 in 10.0 mi NW 8.1 mph - N/A   Clear
6:53 PM 41.0 °F 36.4 °F 14.0 °F 33% 30.15 in 10.0 mi NW 6.9 mph - N/A   Clear
7:53 PM 39.0 °F 34.8 °F 15.1 °F 38% 30.18 in 10.0 mi NW 5.8 mph - N/A   Clear
8:53 PM 37.9 °F 35.5 °F 16.0 °F 41% 30.21 in 10.0 mi NW 3.5 mph - N/A   Clear
9:53 PM 35.1 °F 30.1 °F 18.0 °F 50% 30.24 in 10.0 mi NW 5.8 mph - N/A   Clear
10:53 PM 36.0 °F 31.1 °F 18.0 °F 48% 30.24 in 10.0 mi NW 5.8 mph - N/A   Clear
11:53 PM 34.0 °F - 19.0 °F 54% 30.25 in 10.0 mi Calm Calm - N/A   Clear